User: anonymous   Login
Location: Azul
(36.7830°S, 59.8500°W)
Time: 10:28:00
(UTC-03:00)
Language:

BUGSAT 1 - Orbit

View from above orbital plane
View from above orbital plane
View from above satellite
View from above satellite

Ground track
Ground track

The orbit data is extracted from the following two-line orbital elements,

1 40014U 14033E   21294.92019125  .00001385  00000-0  12822-3 0  9992
2 40014  98.1230 279.0225 0032942 105.7277 254.7583 14.95889399400474
Epoch (UTC): 21 October 2021 22:05:04
Eccentricity: 0.0032942
inclination: 98.1230°
perigee height: 556 km
apogee height: 602 km
right ascension of ascending node: 279.0225°
argument of perigee: 105.7277°
revolutions per day: 14.95889399
mean anomaly at epoch: 254.7583°
orbit number at epoch: 40047

The dashed part of the orbit path shows where the satellite is in the earth's shadow,  

DLR